Date String (YYYY-MM-DD hh:mm:ss) UTC,Instrument flags,absolute air pressure of the measurement (hPa),sample flow rate (lpm),inlet stack bypass flow (lpm),air temperature of the measurement (°C),ambient temperature measured by the external sensor (°C),aerosol sample conditioner tube jacket temperature (°C),OPC LED temperature (°C),internal box temperature (°C),relative humidity of the measurement (%),span deviation,mass concentration of particles derived from Lorenz-Mie calculation of OPC scattering (μg/m³),mass concentration of particles derived from Lorenz-Mie calculation of OPC scattering (μg/m³),mass concentration of particles derived from Lorenz-Mie calculation of OPC scattering (μg/m³)
DateTimeUTC,F1_M11,P_M11,Q1_M11,Q2_M11,T1_M11,T2_M11,T3_M11,T4_M11,T5_M11,U1_M11,ZSPAN_M11,X2_M11,X0_M11,X1_M11
2023-12-01 21:00:00,SystemResetWarning,0818.8,4.99,000.00,020.6,019.9,000.0,028.7,021.9,16.5,0002.7,0014.79,0025.04,0013.39
2023-12-01 21:01:00,SystemResetWarning,0818.8,4.99,000.00,020.6,019.8,000.0,028.7,021.9,16.6,0002.8,0014.83,0025.97,0013.38
2023-12-01 21:02:00,SystemResetWarning,0818.8,5.01,000.00,020.6,019.8,000.0,028.7,021.9,16.5,0002.5,0014.82,0026.07,0013.39
2023-12-01 21:03:00,SystemResetWarning,0818.8,5.01,000.00,020.6,019.9,000.0,028.8,022.0,16.7,0002.4,0014.84,0026.85,0013.40
2023-12-01 21:04:00,SystemResetWarning,0818.8,5.01,000.00,020.6,019.9,000.0,028.8,022.0,16.7,0002.0,0014.88,0026.98,0013.42
2023-12-01 21:05:00,SystemResetWarning,0818.8,4.98,000.00,020.6,019.9,000.0,028.8,022.0,16.5,0002.3,0014.91,0026.67,0013.48
2023-12-01 21:06:00,SystemResetWarning,0818.7,5.00,000.00,020.6,019.9,000.0,028.8,022.0,16.3,0002.3,0014.91,0026.54,0013.49
2023-12-01 21:07:00,SystemResetWarning,0818.7,5.00,000.00,020.7,019.9,000.0,028.8,022.0,16.0,0002.6,0014.92,0025.97,0013.50
2023-12-01 21:08:00,SystemResetWarning,0818.7,5.00,000.00,020.7,019.9,000.0,028.8,022.0,16.0,0002.6,0014.92,0025.87,0013.50
2023-12-01 21:09:00,SystemResetWarning,0818.7,5.00,000.00,020.7,019.9,000.0,028.8,022.0,16.1,0002.6,0014.88,0025.27,0013.48
2023-12-01 21:10:00,SystemResetWarning,0818.8,5.00,000.00,020.7,020.0,000.0,028.8,022.1,16.2,0002.8,0014.88,0025.45,0013.47
2023-12-01 21:11:00,SystemResetWarning,0818.8,5.00,000.00,020.7,020.0,000.0,028.9,022.1,16.0,0002.9,0014.85,0025.79,0013.49
2023-12-01 21:12:00,SystemResetWarning,0818.8,5.00,000.00,020.7,020.0,000.0,028.9,022.1,16.0,0003.0,0014.83,0025.17,0013.55
2023-12-01 21:13:00,SystemResetWarning,0818.8,5.00,000.00,020.7,020.0,000.0,028.9,022.1,15.9,0003.1,0014.86,0024.94,0013.58
2023-12-01 21:14:00,SystemResetWarning,0818.8,5.00,000.00,020.7,020.0,000.0,028.9,022.1,15.9,0002.9,0014.87,0024.12,0013.60
2023-12-01 21:15:00,SystemResetWarning,0818.7,4.99,000.00,020.8,020.0,000.0,028.9,022.1,15.9,0003.1,0014.82,0023.84,0013.59
2023-12-01 21:16:00,SystemResetWarning,0818.7,5.00,000.00,020.8,020.0,000.0,028.9,022.1,16.0,0002.9,0014.79,0023.99,0013.58
2023-12-01 21:17:00,SystemResetWarning,0818.7,5.00,000.00,020.8,020.0,000.0,028.9,022.1,16.1,0002.7,0014.81,0023.79,0013.60
2023-12-01 21:18:00,SystemResetWarning,0818.7,5.00,000.00,020.8,020.1,000.0,029.0,022.1,15.8,0002.4,0014.80,0023.06,0013.61
2023-12-01 21:19:00,SystemResetWarning,0818.7,5.00,000.00,020.8,020.0,000.0,029.0,022.1,16.0,0002.0,0014.77,0022.40,0013.61
2023-12-01 21:20:00,SystemResetWarning,0818.7,5.00,000.00,020.8,020.1,000.0,029.0,022.1,16.1,0002.3,0014.78,0022.06,0013.63
2023-12-01 21:21:00,SystemResetWarning,0818.7,5.00,000.00,020.8,020.1,000.0,029.0,022.2,16.0,0002.1,0014.79,0022.03,0013.65
2023-12-01 21:22:00,SystemResetWarning,0818.7,5.01,000.00,020.8,020.1,000.0,029.0,022.2,15.8,0002.4,0014.83,0021.56,0013.66
2023-12-01 21:23:00,SystemResetWarning,0818.7,5.01,000.00,020.8,020.1,000.0,029.0,022.2,16.1,0002.2,0014.81,0021.07,0013.66
2023-12-01 21:24:00,SystemResetWarning,0818.6,5.00,000.00,020.8,020.1,000.0,029.0,022.2,16.2,0002.2,0014.80,0021.13,0013.68
2023-12-01 21:25:00,SystemResetWarning,0818.6,4.99,000.00,020.9,020.1,000.0,029.0,022.2,16.1,0002.1,0014.81,0021.34,0013.69
2023-12-01 21:26:00,SystemResetWarning,0818.6,4.99,000.00,020.9,020.1,000.0,029.0,022.2,16.2,0001.8,0014.84,0021.22,0013.73
2023-12-01 21:27:00,SystemResetWarning,0818.6,5.00,000.00,020.9,020.1,000.0,029.0,022.2,16.4,0001.9,0014.95,0021.89,0013.77
2023-12-01 21:28:00,SystemResetWarning,0818.7,5.01,000.00,020.9,020.1,000.0,029.1,022.2,16.4,0002.1,0014.95,0022.39,0013.77
2023-12-01 21:29:00,SystemResetWarning,0818.6,5.01,000.00,020.9,020.1,000.0,029.1,022.2,16.6,0002.4,0014.96,0023.45,0013.76
2023-12-01 21:30:00,SystemResetWarning,0818.6,5.01,000.00,020.9,020.1,000.0,029.1,022.2,16.6,0002.7,0015.02,0023.81,0013.77
2023-12-01 21:31:00,SystemResetWarning,0818.6,5.00,000.00,020.9,020.1,000.0,029.1,022.2,16.6,0002.4,0015.09,0024.51,0013.79
2023-12-01 21:32:00,SystemResetWarning,0818.6,5.00,000.00,020.9,020.1,000.0,029.1,022.2,16.6,0002.2,0015.12,0024.89,0013.80
2023-12-01 21:33:00,SystemResetWarning,0818.6,4.99,000.00,020.9,020.1,000.0,029.1,022.2,16.5,0001.2,0015.16,0025.54,0013.78
2023-12-01 21:34:00,SystemResetWarning,0818.6,5.00,000.00,020.9,020.1,000.0,029.1,022.2,16.3,0001.3,0015.16,0025.78,0013.75
2023-12-01 21:35:00,SystemResetWarning,0818.6,5.00,000.00,020.9,020.1,000.0,029.1,022.2,16.5,0001.4,0015.12,0025.47,0013.71
2023-12-01 21:36:00,SystemResetWarning,0818.6,5.00,000.00,020.9,020.1,000.0,029.1,022.3,16.5,0001.4,0015.07,0025.28,0013.65
2023-12-01 21:37:00,SystemResetWarning,0818.7,5.00,000.00,020.9,020.2,000.0,029.1,022.3,16.6,0001.3,0015.04,0025.80,0013.61
2023-12-01 21:38:00,SystemResetWarning,0818.7,5.00,000.00,021.0,020.2,000.0,029.1,022.3,16.4,0001.8,0014.91,0025.31,0013.54
2023-12-01 21:39:00,SystemResetWarning,0818.6,5.00,000.00,021.0,020.2,000.0,029.2,022.3,16.7,0001.8,0014.83,0025.34,0013.49
2023-12-01 21:40:00,SystemResetWarning,0818.6,5.00,000.00,021.0,020.2,000.0,029.2,022.3,16.9,0001.3,0014.83,0025.08,0013.47
2023-12-01 21:41:00,SystemResetWarning,0818.6,5.00,000.00,021.0,020.2,000.0,029.2,022.3,16.9,0000.8,0014.78,0024.47,0013.46
2023-12-01 21:42:00,SystemResetWarning,0818.6,5.00,000.00,021.0,020.2,000.0,029.2,022.4,16.7,0000.6,0014.70,0024.50,0013.40
2023-12-01 21:43:00,SystemResetWarning,0818.6,5.01,000.00,021.0,020.2,000.0,029.2,022.3,16.7,0000.7,0014.59,0023.83,0013.34
2023-12-01 21:44:00,SystemResetWarning,0818.7,5.00,000.00,021.0,020.2,000.0,029.2,022.3,16.8,0001.0,0014.59,0023.55,0013.34
2023-12-01 21:45:00,SystemResetWarning,0818.6,5.00,000.00,021.0,020.2,000.0,029.2,022.3,16.8,0001.9,0014.66,0022.98,0013.42
2023-12-01 21:46:00,SystemResetWarning,0818.7,5.00,000.00,021.0,020.2,000.0,029.2,022.4,16.7,0001.9,0014.79,0023.48,0013.49
2023-12-01 21:47:00,SystemResetWarning,0818.7,5.00,000.00,021.0,020.2,000.0,029.2,022.4,16.7,0001.9,0014.83,0024.15,0013.54
2023-12-01 21:48:00,SystemResetWarning,0818.7,5.00,000.00,021.0,020.2,000.0,029.2,022.3,16.7,0002.3,0014.84,0023.93,0013.57
2023-12-01 21:49:00,SystemResetWarning,0818.7,5.00,000.00,021.0,020.2,000.0,029.2,022.3,16.8,0002.5,0014.89,0023.84,0013.60
2023-12-01 21:50:00,SystemResetWarning,0818.7,5.00,000.00,021.0,020.2,000.0,029.3,022.4,16.8,0002.1,0015.00,0023.87,0013.66
2023-12-01 21:51:00,SystemResetWarning,0818.7,5.00,000.00,021.0,020.2,000.0,029.3,022.4,16.7,0002.4,0015.06,0023.55,0013.70
2023-12-01 21:52:00,SystemResetWarning,0818.7,5.00,000.00,021.0,020.2,000.0,029.3,022.4,16.7,0003.1,0015.11,0023.87,0013.73
2023-12-01 21:53:00,SystemResetWarning,0818.7,5.00,000.00,021.1,020.2,000.0,029.3,022.4,16.7,0003.1,0015.16,0023.86,0013.76
2023-12-01 21:54:00,SystemResetWarning,0818.7,5.00,000.00,021.1,020.2,000.0,029.3,022.4,16.7,0003.4,0015.18,0024.18,0013.77
2023-12-01 21:55:00,SystemResetWarning,0818.7,5.01,000.00,021.1,020.2,000.0,029.3,022.4,16.7,0003.5,0015.19,0024.18,0013.77
2023-12-01 21:56:00,SystemResetWarning,0818.7,5.00,000.00,021.1,020.2,000.0,029.3,022.4,16.7,0003.2,0015.07,0024.55,0013.69
2023-12-01 21:57:00,SystemResetWarning,0818.7,5.00,000.00,021.1,020.2,000.0,029.3,022.4,16.7,0003.1,0014.96,0024.43,0013.61
2023-12-01 21:58:00,SystemResetWarning,0818.8,5.00,000.00,021.1,020.2,000.0,029.3,022.4,16.6,0003.1,0014.92,0023.82,0013.55
2023-12-01 21:59:00,SystemResetWarning,0818.8,5.00,000.00,021.1,020.2,000.0,029.3,022.4,16.5,0002.8,0014.96,0023.76,0013.55
